Regional Weather Roundup
Issued by NWS Northern Indiana

Home | Current Version | Previous Version | Text Only | Print | Product List | Glossary Off
Versions: 1 2 3 4 5 6 7 8 9 10 11 12 13 14 15 16 17 18 19 20 21 22 23 24 25 26 27 28 29 30 31 32 33 34 35 36 37 38 39 40 41 42 43 44 45 46 47 48 49 50

000
ASUS43 KIWX 301900
RWRIWX

KIWX WEATHER ROUNDUP
NATIONAL WEATHER SERVICE NORTHERN INDIANA
300 PM EDT MON MAR 30 2015

NOTE: "FAIR" INDICATES FEW OR NO CLOUDS BELOW 12,000 FEET WITH NO
SIGNIFICANT WEATHER AND/OR OBSTRUCTIONS TO VISIBILITY.

* THESE STATIONS ARE NOT UNDER NWS QUALITY CONTROL. THEY ALSO MAY NOT
  REPORT WEATHER SUCH AS PRECIPITATION OR FOG.

INZ001>027-302000-
NORTHERN INDIANA

CITY           SKY/WX    TMP DP  RH WIND       PRES   REMARKS
GARY*          MOSUNNY   61  19  20 W14       30.02F
SOUTH BEND     MOSUNNY   57  19  22 W18G28    30.02F
ELKHART*       SUNNY     55  16  21 NW17G28   30.01S
GOSHEN         SUNNY     57  25  29 W22G28    30.00S
ANGOLA*        SUNNY     55  27  33 NW22G29   29.96F
FORT WAYNE     PTSUNNY   57  27  31 W22G31    30.00F

$$
INZ028>050-302000-
CENTRAL INDIANA

CITY           SKY/WX    TMP DP  RH WIND       PRES   REMARKS
LAFAYETTE      SUNNY     59  30  33 W13G25    30.07F
KOKOMO*          N/A     57  34  41 W23       30.05F
MUNCIE*        MOSUNNY   56  32  40 W15G24    30.05F
INDIANAPOLIS   MOSUNNY   59  29  31 NW22      30.07F

$$
MIZ043>046-050>051-056>058-064>065-071>073-077>080-302000-
SOUTHWEST LOWER MICHIGAN

CITY           SKY/WX    TMP DP  RH WIND       PRES   REMARKS
BATTLE CREEK   SUNNY     55  22  27 NW26G35   29.95F
BENTON HARBOR  MOSUNNY   51  29  42 W18       30.01F
COLDWATER*     MOSUNNY   55  22  28 W22G31    29.95F
HILLSDALE*     MOSUNNY   55  23  28 NW23G31   29.93F
HOLLAND        SUNNY     52  32  46 W17       29.98F
GRAND RAPIDS   MOSUNNY   52  26  36 W22G31    29.94S
KALAMAZOO      MOSUNNY   54  27  35 W21       29.97F
STURGIS*       MOSUNNY   54  27  35 NW20G29   29.97S
THREE RIVERS*  FAIR      54  25  32 W23G33    29.98R

$$
OHZ001>008-015>018-024>025-302000-
NORTHWEST OHIO

CITY           SKY/WX    TMP DP  RH WIND       PRES   REMARKS
DEFIANCE       MOSUNNY   57  23  26 W18G28    29.97F
FINDLAY        MOSUNNY   56  26  31 W24G33    29.97F
TOLEDO EXPRESS MOSUNNY   53  22  29 NW18G31   29.94F
TOLEDO METCALF PTSUNNY   57  24  28 NW26G35   29.95S
LIMA           MOSUNNY   55  31  39 W17G29    30.00F

$$
AND FOR LAKE MICHIGAN COASTAL AND OPEN LAKE BUOY OBSERVATIONS

STATION/POSITION TEMP    WIND        PRES    VSBY  WAVE
                 AIR SEA DIR/SP/G                  HT/PER
                 (F)     (DEG/KT/KT) (MB)    (MI)  (FT/S)
CALUMET HARBOR    58     230/  8/ 17 1015.0F
MICHIGAN CITY     46     220/ 16/ 16   N/A
BURNS HARBOR      55      CALM  /  2 1017.3S
SAINT JOSEPH      38     180/  7/ 11 1016.6F
SAINT JOSEPH CG                      1017.5      6   0

$$
&&



USA.gov is the U.S. government's official web portal to all federal, state and local government web resources and services.